Weather History for MYNN - April, 2014

Change the Weather History Date:

Monday, April 21, 2014

  Actual Average Record
Temperature  
Mean Temperature 76 °F -  
Max Temperature 84 °F 84 °F 88 °F (2015)
Min Temperature 69 °F 69 °F 60 °F (1997)
Cooling Degree Days 12    
Growing Degree Days 26 (Base 50)    
Moisture  
Dew Point 65 °F    
Average Humidity 66    
Maximum Humidity 83    
Minimum Humidity 48    
Precipitation  
Precipitation 0.00 in 0.13 in - ()
Sea Level Pressure  
Sea Level Pressure 29.96 in    
Wind  
Wind Speed 6 mph ()    
Max Wind Speed 14 mph    
Max Gust Speed -    
Visibility 6.9 miles    
Events      
Averages and records for this station are not official NWS values.
T = Trace of Precipitation, MM = Missing Value Source: Averaged Metar Reports

Daily Weather History Graph

Daily Weather History Graph

Search for Another Location

Airport or City:

Trip Planner

Search our weather history database for the weather conditions in past years. The results will help you decide how hot, cold, wet, or windy it might be!

Date:

Astronomy

Apr. 21, 2014 Rise Set
Actual Time 6:42 AM EDT 7:35 PM EDT
Civil Twilight 6:18 AM EDT 7:58 PM EDT
Nautical Twilight 5:50 AM EDT 8:26 PM EDT
Astronomical Twilight 5:22 AM EDT 8:55 PM EDT
Moon 12:54 AM EDT (4/21) 12:14 PM EDT (4/21)
Length of Visible Light 13h 40m
Length of Day
12h 53m
Waning Gibbous, 58% of the Moon is Illuminated
Apr 21
Waning Gibbous
Apr 22
Last Quarter
Apr 29
New
May 6
First Quarter
May 14
Full

Hourly Weather History & Observations

Time (EDT) Temp. Heat Index Dew Point Humidity Pressure Visibility Wind Dir Wind Speed Gust Speed Precip Events Conditions
12:00 AM 71.6 °F - 62.6 °F 73% 30.02 in 6.2 mi West 3.5 mph - N/A   Partly Cloudy
1:00 AM 71.6 °F - 62.6 °F 73% 30.01 in 6.2 mi West 3.5 mph - N/A   Partly Cloudy
2:00 AM 71 °F - 64 °F 71% 29.99 in 9 mi West 5.8 mph - -   Scattered Clouds
2:00 AM 73.4 °F - 62.6 °F 69% 29.99 in 6.2 mi West 5.8 mph - N/A   Partly Cloudy
3:00 AM 73.4 °F - 64.4 °F 73% 29.97 in 6.2 mi West 5.8 mph - N/A   Scattered Clouds
4:00 AM 73.4 °F - 64.4 °F 73% 29.96 in 6.2 mi NW 4.6 mph - N/A   Unknown
5:00 AM 74 °F - 68 °F 75% 29.96 in 9 mi NNW 4.6 mph - -   Partly Cloudy
5:00 AM 73.4 °F - 68.0 °F 83% 29.95 in 6.2 mi NNW 4.6 mph - N/A   Scattered Clouds
6:00 AM 73.4 °F - 66.2 °F 78% 29.96 in - North - - N/A   Scattered Clouds
7:00 AM 73.4 °F - 64.4 °F 73% 29.97 in 6.2 mi Variable 2.3 mph - N/A   Scattered Clouds
8:00 AM 76 °F - 67 °F 65% 29.99 in 9 mi NW 4.6 mph - -   Partly Cloudy
8:00 AM 75.2 °F - 66.2 °F 73% 29.98 in 6.2 mi NW 4.6 mph - N/A   Scattered Clouds
9:00 AM 77.0 °F - 64.4 °F 65% 29.99 in 6.2 mi North 8.1 mph - N/A   Scattered Clouds
10:00 AM 78.8 °F - 64.4 °F 61% 29.99 in 6.2 mi North 10.4 mph - N/A   Scattered Clouds
11:00 AM 81 °F - 67 °F 54% 30.00 in 9 mi NW 11.5 mph - -   Partly Cloudy
11:00 AM 80.6 °F 83.2 °F 68.0 °F 65% - 6.2 mi NW 11.5 mph - N/A   Scattered Clouds
12:00 PM 78.8 °F - 64.4 °F 61% 29.96 in 6.2 mi NW 13.8 mph - N/A   Scattered Clouds
1:00 PM 80.6 °F 82.7 °F 66.2 °F 61% 29.96 in 6.2 mi WNW 9.2 mph - N/A   Scattered Clouds
2:00 PM 83 °F - 66 °F 48% 29.95 in 9 mi NW 9.2 mph - -   Partly Cloudy
2:00 PM 84.2 °F 86.6 °F 66.2 °F 55% 29.95 in 6.2 mi NW 9.2 mph - N/A   Mostly Cloudy
3:00 PM 80.6 °F 82.3 °F 64.4 °F 58% 29.95 in 6.2 mi NW 13.8 mph - N/A   Mostly Cloudy
4:00 PM 80.6 °F 82.3 °F 64.4 °F 58% 29.93 in 6.2 mi NNW 11.5 mph - N/A   Mostly Cloudy
5:00 PM 81 °F - 66 °F 52% 29.93 in 9 mi WNW 13.8 mph - -   Partly Cloudy
5:00 PM 80.6 °F 82.7 °F 66.2 °F 61% 29.93 in 6.2 mi WNW 11.5 mph - N/A   Mostly Cloudy
6:00 PM 78.8 °F - 64.4 °F 61% 29.92 in 6.2 mi NW 11.5 mph - N/A   Scattered Clouds
7:00 PM 77.0 °F - 64.4 °F 65% 29.92 in 6.2 mi North 6.9 mph - N/A   Mostly Cloudy
8:00 PM 76 °F - 67 °F 66% 29.93 in 8 mi North 6.9 mph - -   Partly Cloudy
8:00 PM 77.0 °F - 66.2 °F 69% 29.93 in 6.2 mi North 6.9 mph - N/A   Mostly Cloudy
9:00 PM 75.2 °F - 64.4 °F 69% 29.94 in 6.2 mi NNW 6.9 mph - N/A   Mostly Cloudy
10:00 PM 75.2 °F - 64.4 °F 69% 29.95 in 6.2 mi NNW 6.9 mph - N/A   Scattered Clouds
11:00 PM 75 °F - 67 °F 69% 29.94 in 8 mi NNW 5.8 mph - -   Scattered Clouds
11:00 PM 75.2 °F - 66.2 °F 73% 29.94 in 6.2 mi NNW 5.8 mph - N/A   Partly Cloudy